Location: Moscow
(38.3171°N, 79.0889°W)
Time: 01:38:04
(UTC+00:00)

Cosmos 1867 - Pass Details

Date: 07 November 2025
Orbit: 777 x 796 km, 65.0° (Epoch: 08 December)

Event Time Altitude Azimuth Distance (km) Brightness Sun altitude
Rises 22:54:14 0° 218° (SW) 3,265 7.7 -9.1°
Reaches altitude 10° 22:56:39 10° 221° (SW) 2,343 6.9 -9.5°
Maximum altitude 23:02:00 64° 303° (WNW) 877 4.0 -10.5°
Drops below altitude 10° 23:07:25 10° 25° (NNE) 2,368 5.7 -11.6°
Enters shadow 23:09:21 - 28° (NNE) 3,105 6.3 -12.0°
